User: anonymous   Login
Location: Unspecified
(0.0000°N, 0.0000°E)
Time: 09:08:31
(UTC+00:00)
Language:

Skynet 4E - Orbit

View from above orbital plane
View from above orbital plane
View from above satellite
View from above satellite

Ground track
Ground track

The orbit data is extracted from the following two-line orbital elements,

1 25639U 99009B   18017.80806703 -.00000029 +00000-0 +00000-0 0  9993
2 25639 010.3110 026.9801 0003694 265.6521 114.2680 01.00269872069213
Epoch (UTC): 17 January 2018 19:23:36
Eccentricity: 0.0003694
inclination: 10.3110°
perigee height: 35771 km
apogee height: 35802 km
right ascension of ascending node: 26.9801°
argument of perigee: 265.6521°
revolutions per day: 1.00269872
mean anomaly at epoch: 114.2680°
orbit number at epoch: 6921

The dashed part of the orbit path shows where the satellite is in the earth's shadow,  

DLR